LEMUR-2-CHRISTINAHOLT (43882 NORAD) Tracking and Keplerian Element Data

This shows tracking and keplerian element data for the satellite.

Feedback or suggestion? Click here.




ElementValue
Catalog43882
NameLEMUR-2-CHRISTINAHOLT
Epoch Orbit245
Epoch Day25.90447635
Epoch Year2019
RAAN295.9531
Inclination97.7281
Eccentricity0.0012526
Argument of Perigee138.2557
Mean Anonmoly221.9622
Mean Motion14.9633709
Decay Rate1.304E-05
L11 43882U 18111G 19025.90447635 .00001304 00000-0 12024-3 0 9992
L22 43882 97.7281 295.9531 0012526 138.2557 221.9622 14.96337090 2459

Live tracking and technical data element details for LEMUR-2-CHRISTINAHOLT (NORAD 43882). LEMUR-2-CHRISTINAHOLT can be tracked NOW for your location showing map with azimuth and elevation plus other details from your city location.

Track the satellite on the map from your city or location and see movement details for azimuth, elevation, latitude, longitude, range, height, and movement on the map or in text.







IsCatalogInMostPopularTable: catalog: 43882, numindb: 47
Update: records affected: 1



GetName: 43882 LEMUR-2-CHRISTINAHOLT

Hit Count: updated at: Mon, 15 Jul 2019 22:22:46 GMT